STARLINK-35151 (65624 NORAD) Tracking and Keplerian Element Data

This shows tracking and keplerian element data for the satellite.

Feedback or suggestion? Click here.




ElementValue
Catalog65624
NameSTARLINK-35151
Epoch Orbit1547
Epoch Day354.17069003
Epoch Year2025
RAAN316.6321
Inclination53.1623
Eccentricity0.0001371
Argument of Perigee86.332
Mean Anonmoly273.7837
Mean Motion15.30196248
Decay Rate9.896E-05
L11 65624U 25210C 25354.17069003 .00009896 00000+0 34583-3 0 9995
L22 65624 53.1623 316.6321 0001371 86.3320 273.7837 15.30196248 15474



Live tracking and technical data element details for STARLINK-35151 (NORAD 65624). STARLINK-35151 can be tracked NOW for your location showing map with azimuth and elevation plus other details from your city location.







IsCatalogInMostPopularTable: catalog: 65624, numindb: 7
Update: records affected: 1



GetName: 65624 STARLINK-35151

Hit Count: updated at: Thu, 16 Apr 2026 05:43:08 GMT